This is the latest recevied weather packets stored in our database for station/object WC4PEM-12. If no packets are shown the sender has not sent any weather packets the latest 10 day(s).
| Time | Temp. | Humidity | Pressure | Rain* | Wind** | Luminosity | Snow |
|---|---|---|---|---|---|---|---|
| 1777566791 | 28.33° C | 60% | 1012.2 hPa | 0 mm | - | - | - |
| 1777566491 | 28.33° C | 61% | 1012.2 hPa | 0 mm | - | - | - |
| 1777566191 | 27.78° C | 63% | 1012.3 hPa | 0 mm | - | - | - |
| 1777565891 | 27.78° C | 64% | 1012.4 hPa | 0 mm | - | - | - |
| 1777565661 | 27.22° C | 67% | 1012.4 hPa | 0 mm | - | - | - |
| 1777565591 | 27.78° C | 64% | 1012.4 hPa | 0 mm | - | - | - |
| 1777565513 | 27.78° C | 66% | 1012.3 hPa | 0 mm | - | - | - |
| 1777565291 | 27.78° C | 66% | 1012.3 hPa | 0 mm | - | - | - |
| 1777564991 | 27.78° C | 67% | 1012.3 hPa | 0 mm | - | - | - |
| 1777564691 | 27.22° C | 67% | 1012.4 hPa | 0 mm | - | - | - |
| 1777564391 | 26.67° C | 69% | 1012.6 hPa | 0 mm | - | - | - |
| 1777564091 | 26.67° C | 71% | 1012.5 hPa | 0 mm | - | - | - |
| 1777563791 | 26.11° C | 72% | 1012.6 hPa | 0 mm | - | - | - |
| 1777563491 | 26.11° C | 72% | 1012.2 hPa | 0 mm | - | - | - |
| 1777563316 | 26.11° C | 75% | 1012.5 hPa | 0 mm | - | - | - |
| 1777563191 | 26.11° C | 75% | 1012.5 hPa | 0 mm | - | - | - |
| 1777563023 | 26.11° C | 76% | 1012.4 hPa | 0 mm | - | - | - |
| 1777562891 | 26.11° C | 76% | 1012.4 hPa | 0 mm | - | - | - |
| 1777562591 | 25.56° C | 78% | 1012.2 hPa | 0 mm | - | - | - |
| 1777562291 | 25° C | 81% | 1012.5 hPa | 0 mm | - | - | - |
| 1777561992 | 24.44° C | 87% | 1012.6 hPa | 0 mm | - | - | - |
| 1777561991 | 24.44° C | 82% | 1012.6 hPa | 0 mm | - | - | - |
| 1777561691 | 24.44° C | 83% | 1012.4 hPa | 0 mm | - | - | - |
| 1777561391 | 24.44° C | 87% | 1012.6 hPa | 0 mm | - | - | - |
| 1777561284 | 23.89° C | 88% | 1012.5 hPa | 0 mm | - | - | - |
* Rain latest hour (hover to see other rain measurements)
** Current wind speed in m/s (hover to see current wind gust speed)